G4KVI Weather Reports


Display with metric or nautical units.
time (UTC)temp
F
wind
direction
speed
MPH
gust
MPH
rain 1hr
in
rain 24hr
in
rain mn
in
humidity
%
barometer
mb
20260505200606 53 11 2.0 6.0 0.00 0.00 0.00 63 1015.4
20260505200106 53 343 2.0 8.0 0.00 0.00 0.00 63 1015.4
20260505195606 53 340 2.0 8.0 0.00 0.00 0.00 63 1015.5
20260505195106 53 358 2.0 4.0 0.00 0.00 0.00 63 1015.2
20260505194606 53 5 2.0 6.0 0.00 0.00 0.00 63 1015.2
20260505194106 53 5 2.0 6.0 0.00 0.00 0.00 63 1014.9
20260505193606 53 2 2.0 7.0 0.00 0.00 0.00 63 1015.2
20260505193106 53 356 2.0 7.0 0.00 0.00 0.00 62 1015.2
20260505192606 53 5 1.0 4.0 0.00 0.00 0.00 62 1015.0
20260505192106 54 19 1.0 3.0 0.00 0.00 0.00 62 1015.1
20260505191606 54 40 1.0 3.0 0.00 0.00 0.00 62 1014.9
20260505191108 54 53 1.0 4.0 0.00 0.00 0.00 61 1015.1
20260505190609 54 48 2.0 6.0 0.00 0.00 0.00 61 1015.0
20260505190108 55 40 2.0 6.0 0.00 0.00 0.00 60 1014.9
20260505185608 55 30 3.0 7.0 0.00 0.00 0.00 59 1014.7
20260505185108 55 15 2.0 7.0 0.00 0.00 0.00 59 1014.9
20260505184608 55 13 2.0 7.0 0.00 0.00 0.00 59 1014.8
20260505184108 55 11 2.0 7.0 0.00 0.00 0.00 59 1014.7
20260505183608 56 356 2.0 6.0 0.00 0.00 0.00 58 1015.1
20260505183108 56 18 2.0 7.0 0.00 0.00 0.00 58 1014.6
20260505182608 56 16 3.0 10.0 0.00 0.00 0.00 57 1014.8
20260505182108 56 355 3.0 10.0 0.00 0.00 0.00 56 1014.8
20260505181608 56 349 3.0 8.0 0.00 0.00 0.00 56 1014.7
20260505181108 56 31 3.0 8.0 0.00 0.00 0.00 55 1014.8
20260505180608 56 62 3.0 9.0 0.00 0.00 0.00 56 1014.8
20260505180108 56 57 3.0 11.0 0.00 0.00 0.00 56 1014.6
20260505175608 56 60 4.0 11.0 0.00 0.00 0.00 56 1015.0
20260505175108 57 29 4.0 10.0 0.00 0.00 0.00 56 1014.8
20260505174608 57 339 4.0 10.0 0.00 0.00 0.00 57 1014.8
20260505174108 57 348 3.0 10.0 0.00 0.00 0.00 56 1014.8
20260505173608 58 13 3.0 8.0 0.00 0.00 0.00 56 1014.8
20260505173108 58 6 3.0 8.0 0.00 0.00 0.00 55 1014.8
20260505172608 58 346 3.0 8.0 0.00 0.00 0.00 54 1015.0
20260505172108 58 339 3.0 9.0 0.00 0.00 0.00 54 1014.8
20260505171608 58 351 4.0 10.0 0.00 0.00 0.00 53 1014.9
20260505171108 58 360 3.0 10.0 0.00 0.00 0.00 54 1015.0
20260505170608 58 355 4.0 13.0 0.00 0.00 0.00 54 1014.7
20260505170108 58 351 4.0 13.0 0.00 0.00 0.00 54 1014.9
20260505165608 59 25 4.0 11.0 0.00 0.00 0.00 52 1014.7
20260505165108 60 24 4.0 9.0 0.00 0.00 0.00 49 1014.7
20260505164608 61 337 4.0 9.0 0.00 0.00 0.00 48 1014.8
20260505164108 62 320 3.0 9.0 0.00 0.00 0.00 46 1014.8
20260505163608 61 315 3.0 9.0 0.00 0.00 0.00 46 1014.8
20260505163108 61 331 4.0 9.0 0.00 0.00 0.00 46 1014.6
20260505162608 60 346 4.0 9.0 0.00 0.00 0.00 47 1014.8
20260505162108 61 340 3.0 9.0 0.00 0.00 0.00 46 1014.8
20260505161608 61 331 3.0 8.0 0.00 0.00 0.00 47 1014.9
20260505161108 61 330 3.0 8.0 0.00 0.00 0.00 47 1014.8
20260505160608 60 341 3.0 7.0 0.00 0.00 0.00 47 1014.7
20260505160108 60 337 3.0 11.0 0.00 0.00 0.00 48 1014.9
20260505153108 61 355 4.0 10.0 0.00 0.00 0.00 47 1015.0
20260505152608 61 24 3.0 10.0 0.00 0.00 0.00 46 1015.0
20260505152108 60 22 3.0 10.0 0.00 0.00 0.00 46 1015.0
20260505151608 61 9 4.0 10.0 0.00 0.00 0.00 46 1015.0
20260505151108 61 29 3.0 8.0 0.00 0.00 0.00 46 1015.1
20260505150608 60 14 3.0 7.0 0.00 0.00 0.00 46 1015.1
20260505150108 60 346 3.0 9.0 0.00 0.00 0.00 45 1014.9
20260505140608 60 28 2.0 8.0 0.00 0.00 0.00 47 1015.4
20260505140108 59 18 3.0 8.0 0.00 0.00 0.00 50 1015.2
20260505130108 59 22 3.0 9.0 0.00 0.00 0.00 52 1015.7
20260505124608 59 334 4.0 10.0 0.00 0.00 0.00 53 1015.3
20260505124108 58 356 4.0 10.0 0.00 0.00 0.00 54 1015.5
20260505123608 58 42 3.0 9.0 0.00 0.00 0.00 55 1015.4
20260505123108 59 34 3.0 8.0 0.00 0.00 0.00 54 1015.5
20260505122608 59 18 3.0 8.0 0.00 0.00 0.00 54 1015.5
20260505122108 58 46 3.0 10.0 0.00 0.00 0.00 55 1015.6
20260505121608 58 62 4.0 10.0 0.00 0.00 0.00 58 1015.5
20260505121108 58 62 4.0 10.0 0.00 0.00 0.00 56 1015.6
20260505120608 58 33 3.0 9.0 0.00 0.00 0.00 56 1015.6
20260505120108 58 31 3.0 9.0 0.00 0.00 0.00 57 1015.7
20260505115608 57 63 4.0 9.0 0.00 0.00 0.00 58 1015.7
20260505115108 57 68 4.0 9.0 0.00 0.00 0.00 58 1015.7
20260505114608 58 56 3.0 8.0 0.00 0.00 0.00 57 1015.5
20260505114108 59 41 3.0 7.0 0.00 0.00 0.00 56 1015.6
20260505113608 58 3 3.0 9.0 0.00 0.00 0.00 58 1015.8
20260505113108 58 344 3.0 9.0 0.00 0.00 0.00 58 1016.0
20260505112608 57 342 3.0 9.0 0.00 0.00 0.00 59 1016.2
20260505112108 56 348 3.0 9.0 0.00 0.00 0.00 60 1015.8
20260505111608 56 33 3.0 9.0 0.00 0.00 0.00 58 1015.9
20260505111108 56 36 3.0 7.0 0.00 0.00 0.00 60 1016.1
20260505110608 56 346 3.0 8.0 0.00 0.00 0.00 59 1016.1
20260505110108 57 17 3.0 8.0 0.00 0.00 0.00 58 1015.9
20260505102108 57 1 4.0 9.0 0.00 0.00 0.00 57 1016.4
20260505101608 56 360 3.0 9.0 0.00 0.00 0.00 57 1016.1
20260505101108 57 11 3.0 8.0 0.00 0.00 0.00 55 1016.2
20260505100608 57 360 4.0 9.0 0.00 0.00 0.00 55 1016.3
20260505100108 57 327 4.0 10.0 0.00 0.00 0.00 55 1016.2
20260505095608 57 334 5.0 10.0 0.00 0.00 0.00 57 1016.2
20260505095108 57 345 4.0 10.0 0.00 0.00 0.00 56 1016.2
20260505094608 57 342 3.0 10.0 0.00 0.00 0.00 58 1016.1
20260505094108 57 6 3.0 7.0 0.00 0.00 0.00 59 1016.2
20260505093608 57 19 3.0 9.0 0.00 0.00 0.00 59 1016.0
20260505093108 55 21 4.0 10.0 0.00 0.00 0.00 61 1016.2
20260505092608 55 51 4.0 11.0 0.00 0.00 0.00 60 1016.0
20260505092108 55 56 4.0 11.0 0.00 0.00 0.00 62 1016.2
20260505091608 54 60 5.0 10.0 0.00 0.00 0.00 63 1016.1
20260505091108 55 63 4.0 9.0 0.00 0.00 0.00 62 1016.2
20260505090608 55 47 4.0 10.0 0.00 0.00 0.00 63 1016.2
20260505090108 54 39 4.0 13.0 0.00 0.00 0.00 65 1016.2
20260505085608 54 58 4.0 13.0 0.00 0.00 0.00 66 1016.2
20260505085108 54 70 4.0 10.0 0.00 0.00 0.00 66 1016.4
20260505084608 53 70 4.0 10.0 0.00 0.00 0.00 68 1016.3
20260505084108 53 18 4.0 9.0 0.00 0.00 0.00 69 1016.5
20260505083608 52 350 4.0 9.0 0.00 0.00 0.00 72 1016.4
20260505083108 52 14 3.0 8.0 0.00 0.00 0.00 72 1016.2
20260505082608 52 43 3.0 9.0 0.00 0.00 0.00 73 1016.4
20260505082108 52 14 4.0 9.0 0.00 0.00 0.00 73 1016.3
20260505081608 52 356 4.0 9.0 0.00 0.00 0.00 73 1016.6
20260505081108 52 27 4.0 9.0 0.00 0.00 0.00 72 1016.4
20260505080608 53 36 3.0 9.0 0.00 0.00 0.00 72 1016.4
20260505080108 53 5 3.0 8.0 0.00 0.00 0.00 72 1016.8
20260505075608 52 13 3.0 11.0 0.00 0.00 0.00 73 1016.5
20260505075108 52 16 4.0 11.0 0.00 0.00 0.00 73 1016.5
20260505074608 52 1 4.0 10.0 0.00 0.00 0.00 73 1016.6
20260505074108 52 2 3.0 9.0 0.00 0.00 0.00 73 1016.7
20260505073608 52 38 4.0 9.0 0.00 0.00 0.00 74 1016.5
20260505073108 52 67 2.0 9.0 0.00 0.00 0.00 76 1016.6
20260505072608 52 29 2.0 9.0 0.00 0.00 0.00 75 1016.6
20260505072108 52 20 3.0 8.0 0.00 0.00 0.00 77 1016.5
20260505071608 51 38 3.0 8.0 0.00 0.00 0.00 78 1016.5
20260505071108 50 44 3.0 8.0 0.00 0.00 0.00 80 1016.7
20260505070608 50 38 2.0 8.0 0.00 0.00 0.00 80 1016.5
20260505070108 50 38 2.0 7.0 0.00 0.00 0.00 81 1016.5
20260505065608 49 44 3.0 7.0 0.00 0.00 0.00 81 1016.3
20260505065108 49 56 3.0 7.0 0.00 0.00 0.00 82 1016.5
20260505064608 49 63 3.0 7.0 0.00 0.00 0.00 82 1016.5
20260505064108 49 50 2.0 7.0 0.00 0.00 0.00 82 1016.6
20260505063608 49 24 1.0 4.0 0.00 0.00 0.00 82 1016.5
20260505063108 49 30 1.0 4.0 0.00 0.00 0.00 84 1016.5
20260505062608 49 10 2.0 7.0 0.00 0.00 0.00 84 1016.4
20260505062108 49 346 2.0 7.0 0.00 0.00 0.00 85 1016.6
20260505061608 49 351 1.0 3.0 0.00 0.00 0.00 86 1016.3
20260505061108 48 18 1.0 3.0 0.00 0.00 0.00 87 1016.4
20260505060608 48 22 1.0 4.0 0.00 0.00 0.00 88 1016.5
20260505060108 48 14 1.0 4.0 0.00 0.00 0.00 89 1016.3
20260505055608 48 339 2.0 4.0 0.00 0.00 0.00 89 1016.4
20260505055108 48 344 2.0 4.0 0.00 0.00 0.00 90 1016.4
20260505054608 48 357 1.0 3.0 0.00 0.00 0.00 90 1016.4
20260505054108 48 328 1.0 2.0 0.00 0.00 0.00 91 1016.4
20260505053608 48 313 0.0 2.0 0.00 0.00 0.00 91 1016.5
20260505053108 48 311 1.0 1.0 0.00 0.00 0.00 91 1016.4
20260505052608 48 309 1.0 1.0 0.00 0.00 0.00 91 1016.4
20260505052108 47 307 1.0 2.0 0.00 0.00 0.00 91 1016.5
20260505051608 47 305 1.0 2.0 0.00 0.00 0.00 91 1016.3
20260505051108 47 308 1.0 2.0 0.00 0.00 0.00 91 1016.5
20260505050608 48 314 1.0 2.0 0.00 0.00 0.00 91 1016.5
20260505050108 47 326 1.0 2.0 0.00 0.00 0.00 92 1016.4
20260505041608 47 0 0.0 0.0 0.00 0.00 0.00 92 1016.3
20260505041108 47 0 0.0 0.0 0.00 0.00 0.00 91 1016.4
20260505040608 47 0 0.0 0.0 0.00 0.00 0.00 91 1016.2
20260505040108 48 20 0.0 1.0 0.00 0.00 0.00 91 1016.3
20260505035608 48 20 0.0 1.0 0.00 0.00 0.00 91 1016.1
20260505035108 48 4 0.0 1.0 0.00 0.00 0.00 91 1016.2
20260505034608 48 13 1.0 1.0 0.00 0.00 0.00 91 1016.1
20260505034108 48 34 0.0 1.0 0.00 0.00 0.00 91 1016.2
20260505033608 48 39 0.0 1.0 0.00 0.00 0.00 91 1016.2
20260505033108 48 39 0.0 1.0 0.00 0.00 0.00 91 1016.3
20260505032608 48 39 0.0 1.0 0.00 0.00 0.00 91 1016.2
20260505032108 48 42 0.0 1.0 0.00 0.00 0.00 90 1016.2
20260505031608 48 42 0.0 1.0 0.00 0.00 0.00 90 1016.2
20260505031108 49 42 0.0 1.0 0.00 0.00 0.00 90 1016.2
20260505030608 49 42 0.0 1.0 0.00 0.00 0.00 90 1016.3
20260505030108 49 42 0.0 1.0 0.00 0.00 0.00 90 1016.0
20260505025608 49 42 0.0 1.0 0.00 0.00 0.00 90 1016.2
20260505025108 49 41 0.0 2.0 0.00 0.00 0.00 90 1016.1
20260505024608 49 44 0.0 2.0 0.00 0.00 0.00 89 1016.3
20260505024108 50 50 1.0 2.0 0.00 0.00 0.00 90 1016.2
20260505023608 50 51 1.0 2.0 0.00 0.00 0.00 89 1016.3
20260505023108 50 49 1.0 2.0 0.00 0.00 0.00 89 1016.4
20260505022608 50 42 1.0 1.0 0.00 0.00 0.00 89 1016.6
20260505022108 50 21 0.0 1.0 0.00 0.00 0.00 89 1016.6
20260505021608 50 13 0.0 1.0 0.00 0.00 0.00 89 1016.7
20260505021107 50 1 0.0 1.0 0.00 0.00 0.00 89 1016.6
20260505020608 50 357 0.0 1.0 0.00 0.00 0.00 89 1016.7
20260505020108 50 4 0.0 1.0 0.00 0.00 0.00 89 1016.5
20260505015608 50 9 0.0 1.0 0.00 0.00 0.00 89 1016.5
20260505015108 50 9 0.0 1.0 0.00 0.00 0.00 89 1016.6
20260505014607 50 15 0.0 2.0 0.00 0.00 0.00 88 1016.7
20260505014107 51 33 0.0 2.0 0.00 0.00 0.00 88 1016.8
20260505013608 51 55 0.0 1.0 0.00 0.00 0.00 88 1016.5
20260505013107 51 62 1.0 1.0 0.00 0.00 0.00 87 1016.6
20260505012607 51 71 1.0 1.0 0.00 0.00 0.00 87 1016.4
20260505012108 51 78 1.0 1.0 0.00 0.00 0.00 87 1016.4
20260505011607 52 71 1.0 2.0 0.00 0.00 0.00 86 1016.7
20260505011107 52 47 0.0 2.0 0.00 0.00 0.00 86 1016.6
20260505010607 52 33 1.0 2.0 0.00 0.00 0.00 86 1016.7
20260505010108 52 24 0.0 2.0 0.00 0.00 0.00 85 1016.3
20260505005608 53 48 1.0 2.0 0.00 0.00 0.00 85 1016.8
20260505005108 53 75 1.0 2.0 0.00 0.00 0.00 84 1016.7
20260505004607 53 91 1.0 2.0 0.00 0.00 0.00 84 1016.9
20260505004108 53 111 1.0 2.0 0.00 0.00 0.00 84 1016.8
20260505003608 53 109 1.0 2.0 0.00 0.00 0.00 84 1017.0
20260505003108 53 104 1.0 3.0 0.00 0.00 0.00 84 1016.9
20260505002608 53 98 2.0 3.0 0.00 0.00 0.00 84 1016.7
20260505002107 53 105 2.0 4.0 0.00 0.00 0.00 83 1017.0
20260505001608 53 94 2.0 6.0 0.00 0.00 0.00 83 1016.8
20260505001108 53 84 2.0 6.0 0.00 0.00 0.00 83 1017.0
20260505000608 53 95 2.0 4.0 0.00 0.00 0.00 84 1017.0
20260505000107 53 91 1.0 3.0 0.00 0.00 0.00 84 1016.9
20260504235607 53 71 1.0 2.0 0.00 0.00 0.00 84 1016.8
20260504235108 53 71 1.0 2.0 0.00 0.00 0.00 84 1016.9
20260504234607 53 77 1.0 3.0 0.00 0.00 0.00 84 1017.1
20260504234107 53 87 1.0 3.0 0.00 0.00 0.00 84 1016.8
20260504233608 53 88 2.0 3.0 0.00 0.00 0.00 84 1017.0
20260504233108 54 89 1.0 3.0 0.00 0.00 0.00 85 1016.7
20260504232607 54 93 2.0 4.0 0.00 0.00 0.00 85 1016.9
20260504232108 54 95 1.0 4.0 0.00 0.00 0.00 85 1016.8
20260504231607 54 99 1.0 2.0 0.00 0.00 0.00 85 1017.1
20260504231107 54 94 1.0 2.0 0.00 0.00 0.00 85 1017.1
20260504230608 54 91 1.0 3.0 0.00 0.00 0.00 84 1017.0
20260504230108 54 92 1.0 3.0 0.00 0.00 0.00 84 1017.3
20260504225608 54 98 1.0 3.0 0.00 0.00 0.00 84 1017.3
20260504225107 54 105 1.0 3.0 0.00 0.00 0.00 84 1016.9
20260504224608 54 101 1.0 2.0 0.00 0.00 0.00 84 1017.1
20260504224107 54 92 1.0 2.0 0.00 0.00 0.00 83 1017.2
20260504223607 54 94 1.0 2.0 0.00 0.00 0.00 83 1017.0
20260504223107 54 95 1.0 2.0 0.00 0.00 0.00 83 1017.1
20260504222607 54 98 1.0 2.0 0.00 0.00 0.00 83 1017.4
20260504222107 54 101 1.0 2.0 0.00 0.00 0.00 83 1017.0
20260504221612 54 100 2.0 3.0 0.00 0.00 0.00 83 1017.1
20260504221107 54 97 2.0 3.0 0.00 0.00 0.00 83 1017.3
20260504220608 54 97 2.0 3.0 0.00 0.00 0.00 82 1017.2
20260504220108 54 101 2.0 3.0 0.00 0.00 0.00 82 1017.4
20260504215607 54 97 2.0 3.0 0.00 0.00 0.00 82 1017.1
20260504215107 55 96 2.0 3.0 0.00 0.00 0.00 82 1017.3
20260504214608 55 99 2.0 3.0 0.00 0.00 0.00 82 1017.2
20260504214107 55 93 2.0 3.0 0.00 0.00 0.00 82 1017.0
20260504213607 55 91 1.0 3.0 0.00 0.00 0.00 82 1017.1
20260504213108 55 97 2.0 3.0 0.00 0.00 0.00 82 1017.1
20260504212608 55 93 2.0 3.0 0.00 0.00 0.00 82 1017.0
20260504212108 55 91 1.0 3.0 0.00 0.00 0.00 82 1017.2
20260504211608 55 91 1.0 4.0 0.00 0.00 0.00 81 1017.3
20260504211108 55 92 2.0 4.0 0.00 0.00 0.00 81 1017.1
20260504210608 55 98 2.0 4.0 0.00 0.00 0.00 81 1017.2
20260504210108 55 97 2.0 4.0 0.00 0.00 0.00 81 1017.2
20260504205608 55 93 2.0 6.0 0.00 0.00 0.00 80 1017.2
20260504205004 56 92 2.0 6.0 0.00 0.00 0.00 80 1017.2
20260504204504 56 90 2.0 3.0 0.00 0.00 0.00 80 1017.3
20260504204004 56 90 2.0 4.0 0.00 0.00 0.00 80 1017.2
20260504203504 56 94 2.0 4.0 0.00 0.00 0.00 80 1017.3
20260504203004 56 95 2.0 4.0 0.00 0.00 0.00 79 1017.2
20260504202504 56 98 1.0 3.0 0.00 0.00 0.00 79 1017.4
20260504202004 56 99 2.0 6.0 0.00 0.00 0.00 79 1017.0
20260504201504 56 100 2.0 6.0 0.00 0.00 0.00 79 1017.2